Location: La Sioule Rivi�re
(46.3664°N, 3.3197°E)
Time: 13:09:12
(UTC+00:00)

Cosmos 1777 Rocket - Pass Details

Date: 29 October 2020
Orbit: 759 x 775 km, 74.0° (Epoch: 23 November)

Event Time Altitude Azimuth Distance (km) Brightness Sun altitude
Rises 18:31:17 0° 342° (NNW) 3,229 7.5 -20.4°
Reaches altitude 10° 18:33:46 10° 349° (N) 2,300 6.6 -20.8°
Enters shadow 18:38:38 44° 58° (ENE) 1,048 4.3 -21.7°
